MDT,Max TemperatureF,Mean TemperatureF,Min TemperatureF,Max Dew PointF,MeanDew PointF,Min DewpointF,Max Humidity, Mean Humidity, Min Humidity, Max Sea Level PressureIn, Mean Sea Level PressureIn, Min Sea Level PressureIn, Max VisibilityMiles, Mean VisibilityMiles, Min VisibilityMiles, Max Wind SpeedMPH, Mean Wind SpeedMPH, Max Gust SpeedMPH,PrecipitationIn, CloudCover, Events, WindDirDegrees
2013-10-1,60,49,38,31,26,22,64,44,23,29.97,29.89,29.83,10,10,10,28,14,35,T,3,,250
2013-10-2,52,42,31,34,29,26,82,60,38,30.12,30.05,29.98,10,10,10,16,6,20,0.00,3,,257
2013-10-3,43,38,32,34,32,30,100,81,62,30.45,30.20,30.01,10,7,1,20,7,23,0.12,8,Snow,26
2013-10-4,44,35,25,34,29,23,100,76,51,30.55,30.46,30.35,10,9,2,12,5,14,0.00,5,Snow,287
2013-10-5,59,41,22,34,27,20,92,61,30,30.38,30.27,30.17,10,10,10,18,9,25,0.00,0,,215
2013-10-6,70,52,34,36,31,28,89,56,22,30.19,30.10,29.97,10,10,9,13,6,17,0.00,0,,196
2013-10-7,75,56,36,32,26,21,64,39,13,29.95,29.77,29.65,10,10,10,24,10,32,0.00,0,,225
2013-10-8,54,41,28,31,28,22,85,57,28,30.02,29.82,29.71,10,10,10,15,6,22,T,2,,228
2013-10-9,55,40,24,34,29,22,92,67,41,30.17,30.05,29.88,10,10,10,21,7,30,0.00,1,,120
2013-10-10,57,44,30,38,32,28,92,68,43,29.86,29.79,29.72,10,10,10,14,6,17,T,3,Rain,236
2013-10-11,40,36,31,37,34,30,100,90,79,30.11,29.98,29.84,10,8,1,22,8,29,0.21,7,Rain-Snow,283
2013-10-12,50,38,26,34,30,26,100,75,50,30.20,30.14,30.10,10,10,10,15,6,18,0.00,2,,113
2013-10-13,49,40,31,37,32,26,100,75,49,30.27,30.21,30.14,10,9,6,21,9,25,0.22,6,Rain,104
2013-10-14,43,39,34,37,34,31,100,85,70,30.46,30.34,30.23,10,10,7,9,4,16,0.05,8,Rain,303
2013-10-15,55,40,24,29,24,15,100,60,20,30.44,30.25,30.12,10,10,10,10,5,12,0.00,0,,173
2013-10-16,49,37,24,36,30,20,100,73,46,30.25,30.14,30.06,10,8,2,23,8,32,0.20,6,Rain-Snow,282
2013-10-17,40,32,24,34,31,24,100,85,70,30.27,30.19,30.11,10,8,1,24,8,32,0.16,7,Rain-Snow,283
2013-10-18,54,40,26,32,28,24,92,65,38,30.28,30.14,30.00,10,10,10,23,10,30,0.00,3,,261
2013-10-19,57,46,34,37,30,27,92,64,35,30.00,29.95,29.88,10,10,9,22,10,32,0.07,3,Rain,286
2013-10-20,50,44,37,37,35,32,92,73,54,30.12,30.06,30.00,10,10,10,16,8,20,T,8,Rain,277
2013-10-21,57,48,39,37,35,32,76,61,46,30.11,30.07,30.04,10,10,10,18,11,29,T,6,,280
2013-10-22,62,47,31,40,34,31,92,66,39,30.18,30.12,30.06,10,10,10,12,5,17,0.00,0,,178
2013-10-23,56,45,34,38,35,32,85,64,43,30.27,30.21,30.12,10,10,10,15,5,17,0.00,2,,172
2013-10-24,62,47,31,39,36,31,96,68,39,30.28,30.18,30.06,10,10,10,12,6,15,0.00,1,,115
2013-10-25,63,47,31,33,30,28,85,56,27,30.30,30.18,30.06,10,10,10,14,5,17,0.00,0,,201
2013-10-26,67,49,30,33,26,18,92,54,15,30.27,30.15,29.96,10,10,10,14,6,16,0.00,0,,184
2013-10-27,57,42,27,31,25,19,85,56,27,30.23,29.99,29.86,10,10,10,22,10,26,0.00,2,,93
2013-10-28,27,23,19,25,19,16,92,88,84,30.38,30.26,30.17,10,5,1,18,10,22,0.04,8,Snow,88
2013-10-29,31,25,19,25,21,18,100,89,78,30.25,30.01,29.82,10,9,0,12,4,16,T,7,Fog-Snow,107
2013-10-30,48,33,18,30,24,17,100,71,42,29.90,29.86,29.82,10,10,10,21,9,26,0.00,0,,236
2013-10-31,51,40,29,31,27,25,75,59,42,29.92,29.82,29.73,10,10,10,32,15,44,0.00,5,,272